When you browse on this site, cookies collect data to enhance your experience and personalize the content and advertising you see.
Visit our Privacy Policy to learn more. By continuing to use the site, you agree to this use of cookies and data.
  • In Schweiz
  • Länderverzeichnis
  • Für 7 Tage
  • Wassertemperatur
  • Satellitenkarten
  • Wetterkarte
  • Widgets
  • user-avatar
    Anmelden

    Stündliche Wetter Krzyz

    Heute, 21 Februar, Donnerstag

    Zeit Temperatur Niederschläge Wind Luftdruck Luftfeuchtigkeit
    00:00 +3°C° 0 mm 3 m/S 751 mmHg 85%
    01:00 +4°C° 0 mm 3 m/S 751 mmHg 85%
    02:00 +4°C° 0 mm 3 m/S 751 mmHg 86%
    03:00 +4°C° 0 mm 3 m/S 751 mmHg 86%
    04:00 +4°C° 0 mm 4 m/S 751 mmHg 87%
    05:00 +3°C° 0 mm 4 m/S 751 mmHg 88%
    06:00 +3°C° 0 mm 4 m/S 751 mmHg 89%
    07:00 +1°C° 0 mm 4 m/S 751 mmHg 90%
    08:00 +3°C° 0 mm 4 m/S 751 mmHg 85%
    09:00 +3°C° 0 mm 5 m/S 751 mmHg 80%
    10:00 +5°C° 0 mm 5 m/S 751 mmHg 75%
    11:00 +5°C° 0.1 mm 5 m/S 750 mmHg 75%
    12:00 +6°C° 0.1 mm 5 m/S 750 mmHg 76%
    13:00 +6°C° 0.1 mm 5 m/S 750 mmHg 77%
    14:00 +5°C° 0.7 mm 6 m/S 750 mmHg 78%
    15:00 +4°C° 0.7 mm 6 m/S 749 mmHg 80%
    16:00 +4°C° 0.7 mm 6 m/S 749 mmHg 82%
    17:00 +4°C° 0.6 mm 6 m/S 749 mmHg 83%
    18:00 +4°C° 0.6 mm 6 m/S 749 mmHg 85%
    19:00 +5°C° 0.6 mm 5 m/S 749 mmHg 86%
    20:00 +4°C° 0.2 mm 6 m/S 748 mmHg 87%
    21:00 +4°C° 0.2 mm 6 m/S 748 mmHg 89%
    22:00 +4°C° 0.2 mm 6 m/S 748 mmHg 90%
    23:00 +4°C° 0.3 mm 6 m/S 748 mmHg 91%

    Morgen, 22 Februar, Freitag

    Zeit Temperatur Niederschläge Wind Luftdruck Luftfeuchtigkeit
    00:00 +5°C° 0.3 mm 5 m/S 748 mmHg 93%
    01:00 +6°C° 0.3 mm 5 m/S 748 mmHg 94%
    02:00 +5°C° 0.6 mm 5 m/S 749 mmHg 93%
    03:00 +4°C° 0.6 mm 6 m/S 749 mmHg 92%
    04:00 +3°C° 0.6 mm 6 m/S 749 mmHg 91%
    05:00 +2°C° 0.1 mm 6 m/S 751 mmHg 87%
    06:00 -1°C° 0.1 mm 7 m/S 752 mmHg 82%
    07:00 -2°C° 0.1 mm 8 m/S 753 mmHg 78%
    08:00 -3°C° 0 mm 7 m/S 755 mmHg 71%
    09:00 -3°C° 0 mm 7 m/S 756 mmHg 64%
    10:00 -3°C° 0 mm 6 m/S 757 mmHg 57%
    11:00 -3°C° 0 mm 6 m/S 758 mmHg 52%
    12:00 -2°C° 0 mm 6 m/S 759 mmHg 48%
    13:00 -2°C° 0 mm 6 m/S 760 mmHg 43%
    14:00 -1°C° 0 mm 5 m/S 760 mmHg 42%
    15:00 -2°C° 0 mm 5 m/S 760 mmHg 41%
    16:00 -2°C° 0 mm 5 m/S 761 mmHg 40%
    17:00 -4°C° 0 mm 5 m/S 761 mmHg 42%
    18:00 -4°C° 0 mm 5 m/S 762 mmHg 44%
    19:00 -4°C° 0 mm 4 m/S 763 mmHg 47%
    20:00 -4°C° 0 mm 4 m/S 763 mmHg 46%
    21:00 -4°C° 0 mm 4 m/S 764 mmHg 45%
    22:00 -4°C° 0 mm 4 m/S 764 mmHg 44%
    23:00 -4°C° 0 mm 3 m/S 764 mmHg 43%

    übermorgen, 23 Februar, Samstag

    Zeit Temperatur Niederschläge Wind Luftdruck Luftfeuchtigkeit
    00:00 -4°C° 0 mm 3 m/S 764 mmHg 42%
    01:00 -4°C° 0 mm 3 m/S 765 mmHg 40%
    02:00 -5°C° 0 mm 3 m/S 764 mmHg 40%
    03:00 -5°C° 0 mm 3 m/S 764 mmHg 39%
    04:00 -4°C° 0 mm 2 m/S 764 mmHg 39%
    05:00 -4°C° 0 mm 2 m/S 764 mmHg 39%
    06:00 -4°C° 0 mm 2 m/S 765 mmHg 39%
    07:00 -4°C° 0 mm 2 m/S 765 mmHg 39%
    08:00 -4°C° 0 mm 2 m/S 765 mmHg 36%
    09:00 -3°C° 0 mm 2 m/S 765 mmHg 33%
    10:00 -2°C° 0 mm 2 m/S 766 mmHg 30%
    11:00 -2°C° 0 mm 2 m/S 765 mmHg 28%
    12:00 -1°C° 0 mm 2 m/S 765 mmHg 26%
    13:00 -1°C° 0 mm 2 m/S 765 mmHg 24%
    14:00 -1°C° 0 mm 2 m/S 764 mmHg 25%
    15:00 -1°C° 0 mm 2 m/S 764 mmHg 25%
    16:00 +1°C° 0 mm 1 m/S 764 mmHg 26%
    17:00 +1°C° 0 mm 1 m/S 764 mmHg 29%
    18:00 0°C° 0 mm 1 m/S 764 mmHg 32%
    19:00 -1°C° 0 mm 1 m/S 764 mmHg 35%
    20:00 -1°C° 0 mm 1 m/S 764 mmHg 35%
    21:00 -1°C° 0 mm 1 m/S 764 mmHg 35%
    22:00 -2°C° 0 mm 0 m/S 764 mmHg 35%
    23:00 -1°C° 0 mm 1 m/S 763 mmHg 35%

    24 Februar, Sonntag

    Zeit Temperatur Niederschläge Wind Luftdruck Luftfeuchtigkeit
    00:00 -1°C° 0 mm 1 m/S 763 mmHg 35%
    01:00 -1°C° 0 mm 1 m/S 763 mmHg 35%
    02:00 -1°C° 0 mm 1 m/S 763 mmHg 35%
    03:00 -1°C° 0 mm 1 m/S 762 mmHg 35%
    04:00 -1°C° 0 mm 1 m/S 762 mmHg 35%
    05:00 -3°C° 0 mm 2 m/S 762 mmHg 35%
    06:00 -3°C° 0 mm 2 m/S 762 mmHg 36%
    07:00 -2°C° 0 mm 2 m/S 761 mmHg 36%
    08:00 -1°C° 0 mm 2 m/S 761 mmHg 33%
    09:00 +1°C° 0 mm 2 m/S 761 mmHg 30%
    10:00 +2°C° 0 mm 2 m/S 761 mmHg 28%
    11:00 +2°C° 0 mm 2 m/S 761 mmHg 29%
    12:00 +2°C° 0 mm 3 m/S 761 mmHg 30%
    13:00 +2°C° 0 mm 3 m/S 760 mmHg 31%
    14:00 +2°C° 0 mm 3 m/S 760 mmHg 36%
    15:00 +3°C° 0 mm 2 m/S 760 mmHg 41%
    16:00 +3°C° 0 mm 2 m/S 759 mmHg 46%
    17:00 +2°C° 0 mm 2 m/S 759 mmHg 51%
    18:00 +2°C° 0 mm 2 m/S 759 mmHg 57%
    19:00 +1°C° 0 mm 2 m/S 759 mmHg 62%
    20:00 +1°C° 0 mm 2 m/S 760 mmHg 67%
    21:00 -1°C° 0 mm 2 m/S 760 mmHg 71%
    22:00 -1°C° 0 mm 2 m/S 760 mmHg 76%
    23:00 -1°C° 0 mm 2 m/S 760 mmHg 80%

    25 Februar, Montag

    Zeit Temperatur Niederschläge Wind Luftdruck Luftfeuchtigkeit
    00:00 -1°C° 0 mm 2 m/S 760 mmHg 84%
    01:00 -1°C° 0 mm 2 m/S 759 mmHg 88%
    02:00 -1°C° 0 mm 2 m/S 759 mmHg 90%
    03:00 -1°C° 0 mm 2 m/S 759 mmHg 91%
    04:00 -1°C° 0 mm 2 m/S 759 mmHg 93%
    05:00 -2°C° 0 mm 2 m/S 759 mmHg 93%
    06:00 -2°C° 0 mm 2 m/S 759 mmHg 94%
    07:00 -2°C° 0 mm 2 m/S 759 mmHg 94%
    08:00 +1°C° 0 mm 2 m/S 760 mmHg 90%
    09:00 +2°C° 0 mm 2 m/S 760 mmHg 86%
    10:00 +3°C° 0 mm 2 m/S 761 mmHg 82%
    11:00 +4°C° 0 mm 2 m/S 761 mmHg 80%
    12:00 +5°C° 0 mm 2 m/S 761 mmHg 79%
    13:00 +6°C° 0 mm 1 m/S 761 mmHg 78%
    14:00 +6°C° 0 mm 1 m/S 760 mmHg 79%
    15:00 +6°C° 0 mm 1 m/S 760 mmHg 80%
    16:00 +7°C° 0 mm 1 m/S 760 mmHg 80%
    17:00 +6°C° 0 mm 1 m/S 760 mmHg 83%
    18:00 +5°C° 0 mm 1 m/S 760 mmHg 86%
    19:00 +4°C° 0 mm 1 m/S 760 mmHg 90%
    20:00 +4°C° 0 mm 1 m/S 760 mmHg 90%
    21:00 +3°C° 0 mm 1 m/S 760 mmHg 90%
    22:00 +2°C° 0 mm 0 m/S 760 mmHg 91%
    23:00 +3°C° 0 mm 1 m/S 760 mmHg 91%

    26 Februar, Dienstag

    Zeit Temperatur Niederschläge Wind Luftdruck Luftfeuchtigkeit
    00:00 +2°C° 0 mm 1 m/S 760 mmHg 91%
    01:00 +2°C° 0 mm 1 m/S 760 mmHg 91%
    02:00 +1°C° 0 mm 2 m/S 759 mmHg 91%
    03:00 +1°C° 0 mm 2 m/S 759 mmHg 91%
    04:00 +1°C° 0 mm 2 m/S 758 mmHg 91%
    05:00 +1°C° 0 mm 2 m/S 758 mmHg 92%
    06:00 0°C° 0 mm 3 m/S 757 mmHg 92%
    07:00 0°C° 0 mm 3 m/S 757 mmHg 93%
    08:00 +2°C° 0 mm 3 m/S 757 mmHg 88%
    09:00 +3°C° 0 mm 4 m/S 756 mmHg 84%
    10:00 +4°C° 0 mm 4 m/S 756 mmHg 79%
    11:00 +6°C° 0 mm 5 m/S 756 mmHg 75%
    12:00 +7°C° 0 mm 5 m/S 755 mmHg 71%
    13:00 +8°C° 0 mm 6 m/S 754 mmHg 66%
    14:00 +8°C° 0 mm 6 m/S 754 mmHg 65%
    15:00 +8°C° 0 mm 6 m/S 754 mmHg 64%
    16:00 +8°C° 0 mm 5 m/S 753 mmHg 63%
    17:00 +8°C° 0 mm 5 m/S 753 mmHg 65%
    18:00 +7°C° 0 mm 5 m/S 753 mmHg 68%
    19:00 +6°C° 0 mm 4 m/S 754 mmHg 71%
    20:00 +6°C° 0 mm 4 m/S 754 mmHg 75%
    21:00 +6°C° 0 mm 4 m/S 754 mmHg 79%
    22:00 +5°C° 0 mm 4 m/S 754 mmHg 82%
    23:00 +4°C° 0 mm 3 m/S 754 mmHg 86%
    Mehr zeigen